Location: Pitton
(51.0667°N, 1.7000°W)
Time: 03:15:37
(UTC+00:00)

ERS-1 Rocket - Pass Details

Date: 17 September 2019
Orbit: 754 x 757 km, 98.5° (Epoch: 20 October)

Event Time Altitude Azimuth Distance (km) Brightness Sun altitude
Exits shadow 21:00:30 55° 68° (ENE) 905 3.1 -24.5°
Drops below altitude 10° 21:05:24 10° 352° (N) 2,295 6.1 -25.0°
Sets 21:07:45 0° 349° (NNW) 3,225 7.0 -25.3°
